• In Slovakia
  • List of Countries
  • For 7 days
  • Water Temperature
  • Satellite Maps
  • Weather Map
  • Weather Widgets
  • user-avatar
    Login

    Hourly Weather Grigorovo

    Today, 21 May, Monday

    Time Temperature Precipitation Wind Pressure Humidity
    00:00 +9°C° 0 mm 1 mps 754 mmHg 65%
    01:00 +8°C° 0 mm 1 mps 754 mmHg 66%
    02:00 +8°C° 0 mm 1 mps 754 mmHg 68%
    03:00 +9°C° 0 mm 1 mps 755 mmHg 67%
    04:00 +10°C° 0 mm 1 mps 755 mmHg 66%
    05:00 +10°C° 0 mm 1 mps 755 mmHg 64%
    06:00 +13°C° 0 mm 1 mps 756 mmHg 57%
    07:00 +16°C° 0 mm 1 mps 756 mmHg 50%
    08:00 +19°C° 0 mm 1 mps 756 mmHg 43%
    09:00 +21°C° 0 mm 1 mps 756 mmHg 39%
    10:00 +22°C° 0 mm 1 mps 756 mmHg 36%
    11:00 +24°C° 0 mm 1 mps 757 mmHg 32%
    12:00 +24°C° 0 mm 1 mps 756 mmHg 31%
    13:00 +25°C° 0 mm 1 mps 756 mmHg 31%
    14:00 +25°C° 0 mm 1 mps 756 mmHg 30%
    15:00 +24°C° 0 mm 1 mps 756 mmHg 32%
    16:00 +24°C° 0 mm 1 mps 756 mmHg 34%
    17:00 +23°C° 0 mm 1 mps 756 mmHg 35%
    18:00 +21°C° 0 mm 1 mps 756 mmHg 43%
    19:00 +18°C° 0 mm 1 mps 756 mmHg 51%
    20:00 +15°C° 0 mm 1 mps 756 mmHg 58%
    21:00 +14°C° 0 mm 1 mps 756 mmHg 61%
    22:00 +13°C° 0 mm 1 mps 756 mmHg 64%
    23:00 +12°C° 0 mm 1 mps 757 mmHg 67%

    Tomorrow, 22 May, Tuesday

    Time Temperature Precipitation Wind Pressure Humidity
    00:00 +12°C° 0 mm 1 mps 757 mmHg 68%
    01:00 +11°C° 0 mm 1 mps 757 mmHg 70%
    02:00 +11°C° 0 mm 1 mps 757 mmHg 72%
    03:00 +11°C° 0 mm 1 mps 757 mmHg 70%
    04:00 +12°C° 0 mm 1 mps 757 mmHg 69%
    05:00 +13°C° 0 mm 1 mps 757 mmHg 68%
    06:00 +15°C° 0 mm 1 mps 757 mmHg 60%
    07:00 +17°C° 0 mm 2 mps 757 mmHg 53%
    08:00 +19°C° 0 mm 2 mps 757 mmHg 46%
    09:00 +20°C° 0 mm 2 mps 757 mmHg 42%
    10:00 +21°C° 0 mm 3 mps 756 mmHg 39%
    11:00 +22°C° 0 mm 3 mps 756 mmHg 36%
    12:00 +22°C° 0 mm 3 mps 756 mmHg 36%
    13:00 +22°C° 0 mm 4 mps 755 mmHg 36%
    14:00 +23°C° 0 mm 4 mps 755 mmHg 36%
    15:00 +21°C° 0.1 mm 3 mps 754 mmHg 47%
    16:00 +18°C° 0.1 mm 3 mps 754 mmHg 59%
    17:00 +16°C° 0.1 mm 2 mps 754 mmHg 70%
    18:00 +16°C° 0.1 mm 2 mps 753 mmHg 74%
    19:00 +15°C° 0.1 mm 2 mps 753 mmHg 77%
    20:00 +14°C° 0.1 mm 2 mps 753 mmHg 81%
    21:00 +14°C° 0 mm 2 mps 753 mmHg 83%
    22:00 +14°C° 0 mm 2 mps 752 mmHg 85%
    23:00 +13°C° 0 mm 2 mps 752 mmHg 88%

    Day after tomorrow, 23 May, Wednesday

    Time Temperature Precipitation Wind Pressure Humidity
    00:00 +13°C° 0 mm 2 mps 752 mmHg 90%
    01:00 +13°C° 0 mm 1 mps 752 mmHg 92%
    02:00 +13°C° 0 mm 1 mps 752 mmHg 94%
    03:00 +13°C° 0 mm 1 mps 751 mmHg 93%
    04:00 +13°C° 0 mm 1 mps 751 mmHg 93%
    05:00 +14°C° 0 mm 2 mps 751 mmHg 93%
    06:00 +15°C° 0 mm 2 mps 751 mmHg 86%
    07:00 +16°C° 0 mm 2 mps 751 mmHg 80%
    08:00 +17°C° 0 mm 2 mps 751 mmHg 74%
    09:00 +18°C° 0 mm 2 mps 751 mmHg 67%
    10:00 +19°C° 0 mm 3 mps 751 mmHg 60%
    11:00 +21°C° 0 mm 3 mps 750 mmHg 53%
    12:00 +21°C° 0 mm 3 mps 750 mmHg 51%
    13:00 +22°C° 0 mm 3 mps 750 mmHg 48%
    14:00 +24°C° 0 mm 3 mps 749 mmHg 46%
    15:00 +22°C° 0.5 mm 3 mps 749 mmHg 54%
    16:00 +20°C° 0.5 mm 3 mps 749 mmHg 63%
    17:00 +19°C° 0.5 mm 3 mps 749 mmHg 71%
    18:00 +18°C° 0.3 mm 2 mps 749 mmHg 77%
    19:00 +16°C° 0.3 mm 1 mps 749 mmHg 83%
    20:00 +15°C° 0.3 mm 1 mps 749 mmHg 89%
    21:00 +14°C° 0.1 mm 1 mps 749 mmHg 91%
    22:00 +13°C° 0.1 mm 1 mps 749 mmHg 93%
    23:00 +13°C° 0.1 mm 1 mps 749 mmHg 94%

    24 May, Thursday

    Time Temperature Precipitation Wind Pressure Humidity
    00:00 +12°C° 0 mm 1 mps 749 mmHg 95%
    01:00 +12°C° 0 mm 1 mps 749 mmHg 96%
    02:00 +12°C° 0 mm 2 mps 749 mmHg 96%
    03:00 +12°C° 0 mm 2 mps 750 mmHg 95%
    04:00 +13°C° 0 mm 2 mps 750 mmHg 93%
    05:00 +12°C° 0 mm 3 mps 750 mmHg 91%
    06:00 +13°C° 0 mm 3 mps 751 mmHg 84%
    07:00 +16°C° 0 mm 3 mps 751 mmHg 78%
    08:00 +17°C° 0 mm 4 mps 752 mmHg 71%
    09:00 +17°C° 0 mm 4 mps 752 mmHg 70%
    10:00 +17°C° 0 mm 4 mps 752 mmHg 68%
    11:00 +16°C° 0 mm 5 mps 753 mmHg 67%
    12:00 +16°C° 0 mm 5 mps 753 mmHg 61%
    13:00 +17°C° 0 mm 5 mps 753 mmHg 55%
    14:00 +19°C° 0 mm 5 mps 754 mmHg 49%
    15:00 +17°C° 0 mm 5 mps 754 mmHg 46%
    16:00 +17°C° 0 mm 5 mps 754 mmHg 43%
    17:00 +17°C° 0 mm 5 mps 754 mmHg 40%
    18:00 +15°C° 0 mm 4 mps 755 mmHg 44%
    19:00 +13°C° 0 mm 3 mps 755 mmHg 47%
    20:00 +11°C° 0 mm 3 mps 756 mmHg 50%
    21:00 +10°C° 0 mm 3 mps 756 mmHg 52%
    22:00 +9°C° 0 mm 3 mps 757 mmHg 54%
    23:00 +8°C° 0 mm 3 mps 757 mmHg 56%

    25 May, Friday

    Time Temperature Precipitation Wind Pressure Humidity
    00:00 +7°C° 0 mm 3 mps 758 mmHg 59%
    01:00 +6°C° 0 mm 2 mps 758 mmHg 61%
    02:00 +6°C° 0 mm 2 mps 758 mmHg 63%
    03:00 +5°C° 0 mm 3 mps 759 mmHg 62%
    04:00 +5°C° 0 mm 3 mps 759 mmHg 61%
    05:00 +7°C° 0 mm 3 mps 760 mmHg 59%
    06:00 +8°C° 0 mm 3 mps 760 mmHg 54%
    07:00 +10°C° 0 mm 3 mps 760 mmHg 48%
    08:00 +11°C° 0 mm 3 mps 760 mmHg 43%
    09:00 +12°C° 0 mm 3 mps 760 mmHg 40%
    10:00 +13°C° 0 mm 3 mps 760 mmHg 36%
    11:00 +14°C° 0 mm 3 mps 760 mmHg 33%
    12:00 +16°C° 0 mm 3 mps 760 mmHg 32%
    13:00 +17°C° 0 mm 2 mps 760 mmHg 30%
    14:00 +18°C° 0 mm 2 mps 760 mmHg 29%
    15:00 +17°C° 0 mm 2 mps 760 mmHg 30%
    16:00 +17°C° 0 mm 2 mps 760 mmHg 32%
    17:00 +17°C° 0 mm 2 mps 760 mmHg 33%
    18:00 +15°C° 0 mm 2 mps 760 mmHg 40%
    19:00 +13°C° 0 mm 1 mps 760 mmHg 47%
    20:00 +11°C° 0 mm 1 mps 760 mmHg 54%
    21:00 +10°C° 0 mm 1 mps 760 mmHg 55%
    22:00 +9°C° 0 mm 1 mps 760 mmHg 57%
    23:00 +8°C° 0 mm 1 mps 760 mmHg 58%

    26 May, Saturday

    Time Temperature Precipitation Wind Pressure Humidity
    00:00 +8°C° 0 mm 1 mps 761 mmHg 59%
    01:00 +7°C° 0 mm 1 mps 761 mmHg 59%
    02:00 +7°C° 0 mm 1 mps 761 mmHg 60%
    03:00 +8°C° 0 mm 1 mps 761 mmHg 60%
    04:00 +9°C° 0 mm 1 mps 761 mmHg 59%
    05:00 +9°C° 0 mm 1 mps 761 mmHg 58%
    06:00 +11°C° 0 mm 1 mps 761 mmHg 53%
    07:00 +14°C° 0 mm 1 mps 761 mmHg 47%
    08:00 +16°C° 0 mm 2 mps 761 mmHg 42%
    09:00 +17°C° 0 mm 2 mps 761 mmHg 39%
    10:00 +18°C° 0 mm 2 mps 760 mmHg 36%
    11:00 +19°C° 0 mm 2 mps 760 mmHg 33%
    12:00 +20°C° 0 mm 2 mps 760 mmHg 33%
    13:00 +20°C° 0 mm 2 mps 759 mmHg 33%
    14:00 +21°C° 0 mm 2 mps 759 mmHg 33%
    15:00 +20°C° 0 mm 2 mps 758 mmHg 36%
    16:00 +20°C° 0 mm 2 mps 757 mmHg 38%
    17:00 +20°C° 0 mm 2 mps 757 mmHg 40%
    18:00 +18°C° 0 mm 2 mps 757 mmHg 49%
    19:00 +16°C° 0 mm 2 mps 756 mmHg 58%
    20:00 +14°C° 0 mm 2 mps 756 mmHg 66%
    21:00 +13°C° 0 mm 2 mps 756 mmHg 69%
    22:00 +12°C° 0 mm 2 mps 756 mmHg 71%
    23:00 +10°C° 0 mm 2 mps 756 mmHg 74%
    Show more